P/2026 M2 ( Leonard )

Japanese version
Home page
Updated on August 9, 2026

---------------------------------------------------------------------

* Profile

Recovery Date June 22, 2026
Magnitude 19.0 mag
Recoverer J.-F. Soulier (Maisoncelles, France)

* Pictures

* Orbital Elements

Epoch 2026 Aug. 28.0 TT = JDT 2461280.5                                         
T 2026 Aug. 15.69589 TT                                 Rudenko                 
q   2.1196004            (2000.0)            P               Q                  
n   0.12049829     Peri.  138.93582     +0.97166990     -0.06595674             
a   4.0595897      Node   226.42632     +0.02479375     +0.98341829             
e   0.4778782      Incl.   18.25571     +0.23503803     +0.16893247             
P   8.18                                                                        
From 142 observations 2018 July 2-2026 June 27, mean residual 0".8.             

* Magnitudes Graph

        m1 = 14.0 + 5 log d + 10.0 log r

---------------------------------------------------------------------

The orbital elements are published on M.P.E.C. 2026-M133.
The magnitudes graphs are made with Comet for Windows.

---------------------------------------------------------------------

Copyright(C) Seiichi Yoshida (comet@aerith.net). All rights reserved.